Weather Roundup
Issued by NWS Springfield, MO

Home | Current Version | Previous Version | Text Only | Print | Product List | Glossary On
Versions: 1 2 3 4 5 6 7 8 9 10 11 12 13 14 15 16 17 18 19 20 21 22 23 24 25 26 27 28 29 30 31 32 33 34 35 36 37 38 39 40 41 42 43 44 45 46 47 48 49 50
000
NZUS99 KSGF 242107
HRRSGF

HOURLY WEATHER
NATIONAL WEATHER SERVICE SPRINGFIELD MO
400 PM CDT MON APR 24 2017

......SGF CWA......

CITY           SKY/WX    TMP DP  RH WIND       PRES   REMARKS
SPRINGFIELD    SUNNY     74  37  26 S13G21    29.74F
JOPLIN         SUNNY     75  37  25 S20       29.67F
WEST PLAINS    SUNNY     74  33  22 S9        29.79F
ROLLA          SUNNY     76  35  22 VRB7      29.75F
OSAGE BEACH    SUNNY     77  34  21 S13       29.74F
BRANSON        MOSUNNY   73  36  25 SE10G20   29.79F

......SURROUNDING SGF CWA......

CITY           SKY/WX    TMP DP  RH WIND       PRES   REMARKS
CHANUTE        SUNNY     73  43  33 S23G32    29.65F
PARSONS        SUNNY     73  46  38 S13G29    29.67F
COFFEYVILLE    SUNNY     74  45  35 S21G29    29.67F
EMPORIA        SUNNY     74  46  36 S18G29    29.60F
GROVE OK       SUNNY     77  41  27 S13G20    29.71F
ROGERS AR      SUNNY     76  35  22 S15       29.75F
SILOAM SPRINGS SUNNY     73  39  29 S17G24    29.73F
HARRISON AR    SUNNY     76  39  26 E10       29.78F
NEAR YELLVILLE SUNNY    N/A N/A N/A S7        29.74F

......KANSAS AND MISSOURI......

CITY           SKY/WX    TMP DP  RH WIND       PRES   REMARKS
KANSAS CTY INT PTSUNNY   75  38  26 S25       29.63F
DOWNTOWN KC    CLOUDY    75  36  24 S18G29    29.63F
COLUMBIA       SUNNY     77  33  20 S14       29.74F
SEDALIA        SUNNY     79  32  18 S22G29    29.71F
ST JOSEPH      CLOUDY    76  38  25 S21G33    29.61F
ST LOUIS       PTSUNNY   77  30  17 SE14      29.78F
SPIRIT OF STL  SUNNY     76  32  20 S12       29.76F
KIRKSVILLE     SUNNY     76  28  17 S21G36    29.71F
WICHITA        CLOUDY    75  49  39 S30G38    29.58F
TOPEKA         MOSUNNY   74  42  31 S21G30    29.61F
OLATHE         CLOUDY    71  40  32 S21G31    29.64F

......TENNESSEE......

CITY           SKY/WX    TMP DP  RH WIND       PRES   REMARKS
MEMPHIS        MOSUNNY   75  55  49 N8        29.80F
NASHVILLE      CLOUDY    69  55  60 CALM      29.80F

......ARKANSAS.......

CITY           SKY/WX    TMP DP  RH WIND       PRES   REMARKS
FAYETTEVILLE   SUNNY     74  39  28 S15       29.76F
FT SMITH       SUNNY     79  38  22 SE13      29.75F
LITTLE ROCK    MOSUNNY   76  41  28 E8        29.80F

......OKLAHOMA.......

CITY           SKY/WX    TMP DP  RH WIND       PRES   REMARKS
TULSA          MOSUNNY   75  43  31 S26G35    29.64F
PONCA CITY     SUNNY     76  45  33 S17G32    29.61F
MCALESTER      SUNNY     76  44  32 S12G25    29.74F
OKLAHOMA CITY  MOSUNNY   75  49  39 S24G35    29.66F

......IOWA............

CITY           SKY/WX    TMP DP  RH WIND       PRES   REMARKS
DES MOINES     CLOUDY    75  30  19 S24G37    29.62F
QUAD CITIES    MOSUNNY   77  27  15 S10G23    29.75F

......ILLINOIS........

CITY           SKY/WX    TMP DP  RH WIND       PRES   REMARKS
QUINCY         SUNNY     76  24  14 S16G22    29.75F
CHICAGO        PTSUNNY   72  30  21 E13       29.84F



USA.gov is the U.S. government's official web portal to all federal, state and local government web resources and services.